Aérodrome :
LOGIN :

S'inscrire | Disclaimer

   EN    FR    IT 

 










Légende :    VFR   VFR Marginal   IFR   IFR Intensif   IFR Très Intensif
Visi : 
Plafond : 
>= 8 km
>= 3000ft
5 à 8 km
1000 à 3000 ft
1500m à 5 km
500 à 1000 ft
800 à 1500m
200 à 500 ft
< 800m
< 200 ft
Symboles :   Orages  Brouillard  Fortes neiges  Fortes précipitations  Vent > 20 kt
SIGMETs :   Divers  Orages  Givrage  Turbulence  Onde Orograph.  Cendres Volcan.







- Altitude de l'aérodrome : 265 ft


ETSH - Holzdorf AB

DERNIER METAR :
  • 171502Z 35011KT 9999 SCT070 BKN300 29/10 Q1010 BLU+FCST CANCEL

METARs EXPIRÉS :
  • 171420Z 34011KT 9999 SCT070 BKN300 30/11 Q1010 BLU+BLU+
  • 171320Z 33011KT 9999 SCT070 SCT300 30/10 Q1010 BLU+BLU+
  • 171220Z 34010G20KT 9999 FEW070 SCT300 29/10 Q1011 BLU+BLU+

TAF AMD TAF ETSH
Valide du 17 à 14h jusqu'au 17 à 23h UTC


171417Z 1714/1723 33010G20KT 9999 NSW SCT070 SCT250 CANCEL 1500
Pas de NOTAMs connus pour ce terrain.



MET'MAP, la Météo Aéronautique d'un coup d'oeil ! - Copyright ORBIFLY Décembre 2007 - Disclaimer

ORBIFLY MET'MAP TEAM :

Programmation & Développement : Alexandra Zaïnal
Conception & Développement : Baudouin d'Aumeries
Co-Programmation & Développement : Marc-Olivier Méhu
Soutien technique & logistique : Manuel Goepfert

Contact : metmap@orbifly.com




SOURCES & CREDITS :

   NOAA